Time,TemperatureF,DewpointF,PressureIn,WindDirection,WindDirectionDegrees,WindSpeedMPH,WindSpeedGustMPH,Humidity,HourlyPrecipIn,Conditions,Clouds,dailyrainin,SoftwareType,DateUTC
2014-09-23 00:12:00,60.0,43.0,-100.00,ENE,75,3.0,4.0,53,-99.99,,,-99.99,,2014-09-23 07:12:00,
2014-09-23 00:21:00,59.0,43.0,-100.00,East,85,2.0,3.0,54,-99.99,,,-99.99,,2014-09-23 07:21:00,
2014-09-23 00:42:00,60.0,43.0,-100.00,North,-999,0.0,3.0,54,-99.99,,,-99.99,,2014-09-23 07:42:00,
2014-09-23 00:54:00,60.0,43.0,-100.00,North,-999,0.0,4.0,54,-99.99,,,-99.99,,2014-09-23 07:54:00,
2014-09-23 01:12:00,60.0,43.0,-100.00,North,-999,0.0,1.0,54,-99.99,,,-99.99,,2014-09-23 08:12:00,
2014-09-23 01:22:00,60.0,44.0,-100.00,South,185,1.0,3.0,54,-99.99,,,-99.99,,2014-09-23 08:22:00,
2014-09-23 01:42:00,61.0,44.0,-100.00,ESE,120,1.0,2.0,53,-99.99,,,-99.99,,2014-09-23 08:42:00,
2014-09-23 01:52:00,60.0,43.0,-100.00,North,-999,0.0,2.0,53,-99.99,,,-99.99,,2014-09-23 08:52:00,
2014-09-23 02:11:00,60.0,43.0,-100.00,SSE,155,1.0,2.0,53,-99.99,,,-99.99,,2014-09-23 09:11:00,
2014-09-23 02:22:00,60.0,43.0,-100.00,SSW,205,1.0,2.0,53,-99.99,,,-99.99,,2014-09-23 09:22:00,
2014-09-23 02:44:00,59.0,42.0,-100.00,East,80,3.0,4.0,53,-99.99,,,-99.99,,2014-09-23 09:44:00,
2014-09-23 02:53:00,59.0,42.0,-100.00,ENE,75,1.0,2.0,54,-99.99,,,-99.99,,2014-09-23 09:53:00,
2014-09-23 03:13:00,59.0,42.0,-100.00,East,90,2.0,3.0,54,-99.99,,,-99.99,,2014-09-23 10:13:00,
2014-09-23 03:23:00,59.0,43.0,-100.00,North,-999,0.0,2.0,55,-99.99,,,-99.99,,2014-09-23 10:23:00,
2014-09-23 03:43:00,57.0,42.0,-100.00,East,80,2.0,3.0,56,-99.99,,,-99.99,,2014-09-23 10:43:00,
2014-09-23 03:53:00,57.0,42.0,-100.00,East,95,1.0,4.0,56,-99.99,,,-99.99,,2014-09-23 10:53:00,
2014-09-23 04:13:00,57.0,41.0,-100.00,North,-999,0.0,2.0,56,-99.99,,,-99.99,,2014-09-23 11:13:00,
2014-09-23 04:22:00,56.0,41.0,-100.00,East,80,1.0,2.0,58,-99.99,,,-99.99,,2014-09-23 11:22:00,
2014-09-23 04:42:00,56.0,42.0,-100.00,ENE,75,2.0,3.0,59,-99.99,,,-99.99,,2014-09-23 11:42:00,
2014-09-23 04:52:00,55.0,42.0,-100.00,ENE,70,2.0,2.0,60,-99.99,,,-99.99,,2014-09-23 11:52:00,
2014-09-23 05:12:00,56.0,42.0,-100.00,NE,45,1.0,4.0,60,-99.99,,,-99.99,,2014-09-23 12:12:00,
2014-09-23 05:22:00,56.0,41.0,-100.00,ESE,110,1.0,4.0,59,-99.99,,,-99.99,,2014-09-23 12:22:00,
2014-09-23 05:42:00,55.0,42.0,-100.00,North,-999,0.0,2.0,60,-99.99,,,-99.99,,2014-09-23 12:42:00,
2014-09-23 05:52:00,54.0,41.0,-100.00,North,-999,0.0,1.0,61,-99.99,,,-99.99,,2014-09-23 12:52:00,
2014-09-23 06:11:00,54.0,41.0,-100.00,ENE,70,1.0,2.0,62,-99.99,,,-99.99,,2014-09-23 13:11:00,
2014-09-23 06:22:00,55.0,42.0,-100.00,ENE,70,1.0,2.0,61,-99.99,,,-99.99,,2014-09-23 13:22:00,
2014-09-23 06:42:00,55.0,41.0,-100.00,East,95,1.0,2.0,60,-99.99,,,-99.99,,2014-09-23 13:42:00,
2014-09-23 06:52:00,55.0,41.0,-100.00,East,80,2.0,3.0,61,-99.99,,,-99.99,,2014-09-23 13:52:00,
2014-09-23 07:12:00,54.0,41.0,-100.00,North,-999,0.0,1.0,61,-99.99,,,-99.99,,2014-09-23 14:12:00,
2014-09-23 07:22:00,54.0,42.0,-100.00,East,90,2.0,2.0,62,-99.99,,,-99.99,,2014-09-23 14:22:00,
2014-09-23 07:33:00,54.0,42.0,-100.00,East,90,2.0,2.0,62,-99.99,,,-99.99,,2014-09-23 14:33:00,
2014-09-23 07:52:00,54.0,42.0,-100.00,North,-999,0.0,2.0,63,-99.99,,,-99.99,,2014-09-23 14:52:00,
2014-09-23 08:12:00,55.0,42.0,-100.00,NE,45,1.0,4.0,62,-99.99,,,-99.99,,2014-09-23 15:12:00,
2014-09-23 08:22:00,55.0,43.0,-100.00,ESE,105,1.0,1.0,62,-99.99,,,-99.99,,2014-09-23 15:22:00,
2014-09-23 08:43:00,55.0,42.0,-100.00,ENE,75,1.0,3.0,61,-99.99,,,-99.99,,2014-09-23 15:43:00,
2014-09-23 08:53:00,56.0,43.0,-100.00,North,-999,0.0,3.0,60,-99.99,,,-99.99,,2014-09-23 15:53:00,
2014-09-23 09:13:00,59.0,44.0,-100.00,SW,230,1.0,4.0,57,-99.99,,,-99.99,,2014-09-23 16:13:00,
2014-09-23 09:23:00,61.0,45.0,-100.00,WSW,255,1.0,5.0,54,-99.99,,,-99.99,,2014-09-23 16:23:00,
2014-09-23 09:43:00,64.0,45.0,-100.00,South,185,4.0,7.0,50,-99.99,,,-99.99,,2014-09-23 16:43:00,
2014-09-23 09:53:00,66.0,46.0,-100.00,South,185,6.0,10.0,49,-99.99,,,-99.99,,2014-09-23 16:53:00,
2014-09-23 10:13:00,66.0,45.0,-100.00,South,190,4.0,8.0,47,-99.99,,,-99.99,,2014-09-23 17:13:00,
2014-09-23 10:23:00,67.0,46.0,-100.00,South,190,6.0,9.0,47,-99.99,,,-99.99,,2014-09-23 17:23:00,
2014-09-23 10:44:00,69.0,47.0,-100.00,South,190,6.0,10.0,47,-99.99,,,-99.99,,2014-09-23 17:44:00,
2014-09-23 10:53:00,69.0,48.0,-100.00,SSW,210,4.0,9.0,46,-99.99,,,-99.99,,2014-09-23 17:53:00,
2014-09-23 11:12:00,71.0,48.0,-100.00,SSW,195,6.0,9.0,45,-99.99,,,-99.99,,2014-09-23 18:12:00,
2014-09-23 11:22:00,72.0,49.0,-100.00,South,185,6.0,13.0,45,-99.99,,,-99.99,,2014-09-23 18:22:00,
2014-09-23 11:42:00,72.0,49.0,-100.00,South,170,6.0,11.0,44,-99.99,,,-99.99,,2014-09-23 18:42:00,
2014-09-23 11:52:00,73.0,49.0,-100.00,South,180,7.0,14.0,43,-99.99,,,-99.99,,2014-09-23 18:52:00,
2014-09-23 12:12:00,74.0,50.0,-100.00,SSE,165,6.0,18.0,42,-99.99,,,-99.99,,2014-09-23 19:12:00,
2014-09-23 12:22:00,75.0,50.0,-100.00,SSE,155,6.0,15.0,41,-99.99,,,-99.99,,2014-09-23 19:22:00,
2014-09-23 12:42:00,76.0,50.0,-100.00,ESE,120,4.0,21.0,39,-99.99,,,-99.99,,2014-09-23 19:42:00,
2014-09-23 12:53:00,77.0,49.0,-100.00,South,180,9.0,21.0,38,-99.99,,,-99.99,,2014-09-23 19:53:00,
2014-09-23 13:13:00,76.0,49.0,-100.00,SW,215,6.0,14.0,39,-99.99,,,-99.99,,2014-09-23 20:13:00,
2014-09-23 13:22:00,76.0,49.0,-100.00,SSE,155,6.0,12.0,39,-99.99,,,-99.99,,2014-09-23 20:22:00,
2014-09-23 13:43:00,76.0,49.0,-100.00,South,180,7.0,17.0,38,-99.99,,,-99.99,,2014-09-23 20:43:00,
2014-09-23 13:53:00,78.0,49.0,-100.00,South,175,7.0,19.0,36,-99.99,,,-99.99,,2014-09-23 20:53:00,
2014-09-23 14:12:00,78.0,49.0,-100.00,ESE,105,6.0,16.0,36,-99.99,,,-99.99,,2014-09-23 21:12:00,
2014-09-23 14:22:00,78.0,48.0,-100.00,SE,125,9.0,21.0,35,-99.99,,,-99.99,,2014-09-23 21:22:00,
2014-09-23 14:43:00,78.0,47.0,-100.00,South,185,7.0,22.0,34,-99.99,,,-99.99,,2014-09-23 21:43:00,
2014-09-23 14:53:00,78.0,47.0,-100.00,South,180,7.0,21.0,34,-99.99,,,-99.99,,2014-09-23 21:53:00,
2014-09-23 15:13:00,78.0,47.0,-100.00,South,180,7.0,17.0,34,-99.99,,,-99.99,,2014-09-23 22:13:00,
2014-09-23 15:43:00,78.0,47.0,-100.00,South,180,7.0,16.0,34,-99.99,,,-99.99,,2014-09-23 22:43:00,